Time,TemperatureF,DewpointF,PressureIn,WindDirection,WindDirectionDegrees,WindSpeedMPH,WindSpeedGustMPH,Humidity,HourlyPrecipIn,Conditions,Clouds,dailyrainin,SoftwareType,DateUTC
2013-09-08 00:01:00,56.1,56.0,29.64,WSW,247,4.0,7.0,100,0.00,,,0.00,Rainwise IP-100,2013-09-08 07:01:00,
2013-09-08 00:06:00,56.3,56.0,29.64,WSW,247,9.3,9.3,100,0.00,,,0.00,Rainwise IP-100,2013-09-08 07:06:00,
2013-09-08 00:11:00,56.3,56.0,29.64,WSW,247,0.0,10.0,100,0.00,,,0.00,Rainwise IP-100,2013-09-08 07:11:00,
2013-09-08 00:16:00,56.4,56.0,29.64,WSW,247,5.1,9.0,100,0.00,,,0.00,Rainwise IP-100,2013-09-08 07:16:00,
2013-09-08 00:21:00,56.4,56.0,29.64,WSW,247,5.6,14.0,100,0.00,,,0.00,Rainwise IP-100,2013-09-08 07:21:00,
2013-09-08 00:26:00,56.5,56.0,29.64,SSW,202,9.3,10.0,100,0.00,,,0.00,Rainwise IP-100,2013-09-08 07:26:00,
2013-09-08 00:31:00,56.5,56.0,29.64,WSW,247,8.2,10.0,100,0.00,,,0.00,Rainwise IP-100,2013-09-08 07:31:00,
2013-09-08 00:36:00,56.5,56.0,29.64,WSW,247,2.1,10.0,100,0.00,,,0.00,Rainwise IP-100,2013-09-08 07:36:00,
2013-09-08 00:41:00,56.5,56.0,29.65,WSW,247,6.3,13.0,100,0.00,,,0.00,Rainwise IP-100,2013-09-08 07:41:00,
2013-09-08 00:46:00,56.5,56.0,29.64,SSW,202,5.6,12.0,100,0.00,,,0.00,Rainwise IP-100,2013-09-08 07:46:00,
2013-09-08 00:51:00,56.4,56.0,29.64,SW,225,11.2,14.0,100,0.00,,,0.00,Rainwise IP-100,2013-09-08 07:51:00,
2013-09-08 00:56:00,56.3,56.0,29.64,SSW,202,10.0,15.0,100,0.00,,,0.00,Rainwise IP-100,2013-09-08 07:56:00,
2013-09-08 01:01:00,56.4,56.0,29.64,SSW,202,8.9,15.0,100,0.00,,,0.00,Rainwise IP-100,2013-09-08 08:01:00,
2013-09-08 01:06:00,56.3,56.0,29.63,SW,225,11.0,18.0,100,0.00,,,0.00,Rainwise IP-100,2013-09-08 08:06:00,
2013-09-08 01:11:00,56.2,56.0,29.63,WSW,247,11.2,14.0,100,0.00,,,0.00,Rainwise IP-100,2013-09-08 08:11:00,
2013-09-08 01:16:00,56.0,56.0,29.63,SW,225,10.0,15.0,100,0.00,,,0.00,Rainwise IP-100,2013-09-08 08:16:00,
2013-09-08 01:21:00,55.8,56.0,29.64,SSW,202,6.1,14.0,100,0.00,,,0.00,Rainwise IP-100,2013-09-08 08:21:00,
2013-09-08 01:26:00,55.7,56.0,29.63,WSW,247,6.8,14.0,100,0.00,,,0.00,Rainwise IP-100,2013-09-08 08:26:00,
2013-09-08 01:31:00,55.8,56.0,29.63,WSW,247,7.7,13.0,100,0.00,,,0.00,Rainwise IP-100,2013-09-08 08:31:00,
2013-09-08 01:36:00,55.8,56.0,29.64,WSW,247,6.3,13.0,100,0.00,,,0.00,Rainwise IP-100,2013-09-08 08:36:00,
2013-09-08 01:41:00,55.6,56.0,29.63,WSW,247,7.9,14.0,100,0.00,,,0.00,Rainwise IP-100,2013-09-08 08:41:00,
2013-09-08 01:46:00,55.5,56.0,29.63,WSW,247,2.1,12.0,100,0.00,,,0.00,Rainwise IP-100,2013-09-08 08:46:00,
2013-09-08 01:51:00,55.4,55.0,29.63,SSW,202,10.3,16.0,100,0.00,,,0.00,Rainwise IP-100,2013-09-08 08:51:00,
2013-09-08 01:56:00,55.4,55.0,29.64,SW,225,6.5,13.0,100,0.00,,,0.00,Rainwise IP-100,2013-09-08 08:56:00,
2013-09-08 02:01:00,55.5,56.0,29.63,WSW,247,4.7,14.0,100,0.00,,,0.00,Rainwise IP-100,2013-09-08 09:01:00,
2013-09-08 02:06:00,55.6,56.0,29.63,SW,225,8.4,14.0,100,0.00,,,0.00,Rainwise IP-100,2013-09-08 09:06:00,
2013-09-08 02:11:00,55.6,56.0,29.64,West,270,5.4,13.0,100,0.00,,,0.00,Rainwise IP-100,2013-09-08 09:11:00,
2013-09-08 02:16:00,55.6,56.0,29.63,SW,225,7.9,13.0,100,0.00,,,0.00,Rainwise IP-100,2013-09-08 09:16:00,
2013-09-08 02:21:00,55.7,56.0,29.63,SW,225,10.0,15.0,100,0.00,,,0.00,Rainwise IP-100,2013-09-08 09:21:00,
2013-09-08 02:26:00,55.8,56.0,29.63,SW,225,6.3,11.0,100,0.00,,,0.00,Rainwise IP-100,2013-09-08 09:26:00,
2013-09-08 02:31:00,55.8,56.0,29.63,SW,225,9.3,12.0,100,0.00,,,0.00,Rainwise IP-100,2013-09-08 09:31:00,
2013-09-08 02:36:00,55.9,56.0,29.63,WSW,247,5.4,12.0,100,0.00,,,0.00,Rainwise IP-100,2013-09-08 09:36:00,
2013-09-08 02:41:00,56.0,56.0,29.63,SSW,202,3.5,8.0,100,0.00,,,0.00,Rainwise IP-100,2013-09-08 09:41:00,
2013-09-08 02:46:00,56.1,56.0,29.63,SSW,202,3.7,8.0,100,0.00,,,0.00,Rainwise IP-100,2013-09-08 09:46:00,
2013-09-08 02:50:00,56.1,56.0,29.62,SSW,202,5.1,11.0,100,0.00,,,0.00,Rainwise IP-100,2013-09-08 09:50:00,
2013-09-08 02:55:00,56.0,56.0,29.63,WSW,247,2.3,11.0,100,0.00,,,0.00,Rainwise IP-100,2013-09-08 09:55:00,
2013-09-08 03:00:00,56.0,56.0,29.63,SSW,202,6.3,10.0,100,0.00,,,0.00,Rainwise IP-100,2013-09-08 10:00:00,
2013-09-08 03:05:00,56.0,56.0,29.63,WSW,247,6.1,9.0,100,0.00,,,0.00,Rainwise IP-100,2013-09-08 10:05:00,
2013-09-08 03:10:00,56.0,56.0,29.63,SSW,202,1.9,7.0,100,0.00,,,0.00,Rainwise IP-100,2013-09-08 10:10:00,
2013-09-08 03:15:00,56.0,56.0,29.64,SSW,202,4.0,6.0,100,0.00,,,0.00,Rainwise IP-100,2013-09-08 10:15:00,
2013-09-08 03:20:00,55.8,56.0,29.63,SSW,202,3.0,10.0,100,0.00,,,0.00,Rainwise IP-100,2013-09-08 10:20:00,
2013-09-08 03:25:00,55.7,56.0,29.63,SW,225,6.5,7.0,100,0.00,,,0.00,Rainwise IP-100,2013-09-08 10:25:00,
2013-09-08 03:30:00,55.7,56.0,29.63,SW,225,7.5,12.0,100,0.00,,,0.00,Rainwise IP-100,2013-09-08 10:30:00,
2013-09-08 03:35:00,55.7,56.0,29.63,SW,225,2.8,10.0,100,0.00,,,0.00,Rainwise IP-100,2013-09-08 10:35:00,
2013-09-08 03:40:00,55.8,56.0,29.63,SSW,202,4.2,9.0,100,0.00,,,0.00,Rainwise IP-100,2013-09-08 10:40:00,
2013-09-08 03:45:00,55.9,56.0,29.63,SSW,202,4.2,11.0,100,0.00,,,0.00,Rainwise IP-100,2013-09-08 10:45:00,
2013-09-08 03:50:00,56.0,56.0,29.63,SW,225,3.3,11.0,100,0.00,,,0.00,Rainwise IP-100,2013-09-08 10:50:00,
2013-09-08 03:55:00,56.0,56.0,29.63,SW,225,6.8,9.0,100,0.00,,,0.00,Rainwise IP-100,2013-09-08 10:55:00,
2013-09-08 04:00:00,56.0,56.0,29.63,SW,225,4.7,9.0,100,0.00,,,0.00,Rainwise IP-100,2013-09-08 11:00:00,
2013-09-08 04:05:00,56.1,56.0,29.63,SSW,202,6.8,10.0,100,0.00,,,0.00,Rainwise IP-100,2013-09-08 11:05:00,
2013-09-08 04:10:00,56.0,56.0,29.63,SSW,202,8.2,10.0,100,0.00,,,0.00,Rainwise IP-100,2013-09-08 11:10:00,
2013-09-08 04:15:00,55.8,56.0,29.63,SW,225,6.5,10.0,100,0.00,,,0.00,Rainwise IP-100,2013-09-08 11:15:00,
2013-09-08 04:20:00,55.7,56.0,29.63,SW,225,6.3,9.0,100,0.00,,,0.00,Rainwise IP-100,2013-09-08 11:20:00,
2013-09-08 04:25:00,55.7,56.0,29.63,SW,225,4.9,8.0,100,0.00,,,0.00,Rainwise IP-100,2013-09-08 11:25:00,
2013-09-08 04:30:00,55.7,56.0,29.63,SW,225,5.8,9.0,100,0.00,,,0.00,Rainwise IP-100,2013-09-08 11:30:00,
2013-09-08 04:35:00,55.6,56.0,29.63,WSW,247,5.4,8.0,100,0.00,,,0.00,Rainwise IP-100,2013-09-08 11:35:00,
2013-09-08 04:40:00,55.6,56.0,29.62,WSW,247,4.4,7.0,100,0.00,,,0.00,Rainwise IP-100,2013-09-08 11:40:00,
2013-09-08 04:45:00,55.7,56.0,29.62,SSW,202,2.6,6.0,100,0.00,,,0.00,Rainwise IP-100,2013-09-08 11:45:00,
2013-09-08 04:50:00,55.7,56.0,29.62,SW,225,5.1,8.0,100,0.00,,,0.00,Rainwise IP-100,2013-09-08 11:50:00,
2013-09-08 04:55:00,55.7,56.0,29.63,SW,225,2.6,8.0,100,0.00,,,0.00,Rainwise IP-100,2013-09-08 11:55:00,
2013-09-08 05:00:00,55.8,56.0,29.63,SW,225,3.7,7.0,100,0.00,,,0.00,Rainwise IP-100,2013-09-08 12:00:00,
2013-09-08 05:05:00,55.7,56.0,29.63,SW,225,3.7,9.0,100,0.00,,,0.00,Rainwise IP-100,2013-09-08 12:05:00,
2013-09-08 05:10:00,55.5,56.0,29.63,SSW,202,5.1,6.0,100,0.00,,,0.00,Rainwise IP-100,2013-09-08 12:10:00,
2013-09-08 05:15:00,55.5,56.0,29.63,SSW,202,5.1,7.0,100,0.00,,,0.00,Rainwise IP-100,2013-09-08 12:15:00,
2013-09-08 05:20:00,55.5,56.0,29.63,WSW,247,5.6,8.0,100,0.00,,,0.00,Rainwise IP-100,2013-09-08 12:20:00,
2013-09-08 05:25:00,55.5,56.0,29.62,SW,225,5.8,8.0,100,0.00,,,0.00,Rainwise IP-100,2013-09-08 12:25:00,
2013-09-08 05:30:00,55.5,56.0,29.62,WSW,247,3.3,7.0,100,0.00,,,0.00,Rainwise IP-100,2013-09-08 12:30:00,
2013-09-08 05:35:00,55.5,56.0,29.62,SW,225,5.4,10.0,100,0.00,,,0.00,Rainwise IP-100,2013-09-08 12:35:00,
2013-09-08 05:40:00,55.5,56.0,29.62,SSW,202,3.5,7.0,100,0.00,,,0.00,Rainwise IP-100,2013-09-08 12:40:00,
2013-09-08 05:45:00,55.5,56.0,29.63,SW,225,4.0,4.0,100,0.00,,,0.00,Rainwise IP-100,2013-09-08 12:45:00,
2013-09-08 05:50:00,55.5,56.0,29.63,SW,225,3.7,7.0,100,0.00,,,0.00,Rainwise IP-100,2013-09-08 12:50:00,
2013-09-08 05:55:00,55.6,56.0,29.63,SW,225,6.1,6.1,100,0.00,,,0.00,Rainwise IP-100,2013-09-08 12:55:00,
2013-09-08 06:00:00,55.6,56.0,29.63,SSW,202,3.7,7.0,100,0.00,,,0.00,Rainwise IP-100,2013-09-08 13:00:00,
2013-09-08 06:05:00,55.5,56.0,29.63,SW,225,4.7,8.0,100,0.00,,,0.00,Rainwise IP-100,2013-09-08 13:05:00,
2013-09-08 06:10:00,55.5,56.0,29.63,SW,225,3.0,7.0,100,0.00,,,0.00,Rainwise IP-100,2013-09-08 13:10:00,
2013-09-08 06:15:00,55.5,56.0,29.63,WSW,247,5.6,7.0,100,0.00,,,0.00,Rainwise IP-100,2013-09-08 13:15:00,
2013-09-08 06:20:00,55.5,56.0,29.63,WSW,247,6.3,8.0,100,0.00,,,0.00,Rainwise IP-100,2013-09-08 13:20:00,
2013-09-08 06:25:00,55.3,55.0,29.63,SSW,202,4.9,9.0,100,0.00,,,0.00,Rainwise IP-100,2013-09-08 13:25:00,
2013-09-08 06:30:00,55.2,55.0,29.63,SSW,202,4.4,7.0,100,0.00,,,0.00,Rainwise IP-100,2013-09-08 13:30:00,
2013-09-08 06:35:00,55.3,55.0,29.64,WSW,247,4.7,7.0,100,0.00,,,0.00,Rainwise IP-100,2013-09-08 13:35:00,
2013-09-08 06:40:00,55.3,55.0,29.64,SSW,202,4.4,9.0,100,0.00,,,0.00,Rainwise IP-100,2013-09-08 13:40:00,
2013-09-08 06:45:00,55.3,55.0,29.64,WSW,247,7.2,9.0,100,0.00,,,0.00,Rainwise IP-100,2013-09-08 13:45:00,
2013-09-08 06:50:00,55.3,55.0,29.63,SW,225,6.1,9.0,100,0.00,,,0.00,Rainwise IP-100,2013-09-08 13:50:00,
2013-09-08 06:55:00,55.3,55.0,29.64,SW,225,7.2,10.0,100,0.00,,,0.00,Rainwise IP-100,2013-09-08 13:55:00,
2013-09-08 07:00:00,55.3,55.0,29.64,SW,225,5.8,7.0,100,0.00,,,0.00,Rainwise IP-100,2013-09-08 14:00:00,
2013-09-08 07:05:00,55.4,55.0,29.64,SSW,202,3.5,9.0,100,0.00,,,0.00,Rainwise IP-100,2013-09-08 14:05:00,
2013-09-08 07:10:00,55.4,55.0,29.65,SSW,202,4.9,8.0,100,0.00,,,0.00,Rainwise IP-100,2013-09-08 14:10:00,
2013-09-08 07:15:00,55.6,56.0,29.64,SSW,202,7.7,7.7,100,0.00,,,0.00,Rainwise IP-100,2013-09-08 14:15:00,
2013-09-08 07:20:00,55.7,56.0,29.64,SSW,202,4.0,11.0,100,0.00,,,0.00,Rainwise IP-100,2013-09-08 14:20:00,
2013-09-08 07:25:00,55.7,56.0,29.64,WSW,247,6.8,9.0,100,0.00,,,0.00,Rainwise IP-100,2013-09-08 14:25:00,
2013-09-08 07:30:00,55.8,56.0,29.65,SSW,202,5.1,11.0,100,0.00,,,0.00,Rainwise IP-100,2013-09-08 14:30:00,
2013-09-08 07:35:00,55.9,56.0,29.65,West,270,6.3,11.0,100,0.00,,,0.00,Rainwise IP-100,2013-09-08 14:35:00,
2013-09-08 07:40:00,56.0,56.0,29.65,SSW,202,5.6,9.0,100,0.00,,,0.00,Rainwise IP-100,2013-09-08 14:40:00,
2013-09-08 07:45:00,56.1,56.0,29.65,SW,225,4.2,9.0,100,0.00,,,0.00,Rainwise IP-100,2013-09-08 14:45:00,
2013-09-08 07:50:00,56.2,56.0,29.65,SW,225,4.4,8.0,100,0.00,,,0.00,Rainwise IP-100,2013-09-08 14:50:00,
2013-09-08 07:55:00,56.2,56.0,29.64,SSW,202,3.3,10.0,100,0.00,,,0.00,Rainwise IP-100,2013-09-08 14:55:00,
2013-09-08 08:00:00,56.3,56.0,29.65,SW,225,4.9,6.0,100,0.00,,,0.00,Rainwise IP-100,2013-09-08 15:00:00,
2013-09-08 08:05:00,56.3,56.0,29.65,SSW,202,3.5,8.0,100,0.00,,,0.00,Rainwise IP-100,2013-09-08 15:05:00,
2013-09-08 08:10:00,56.3,56.0,29.65,SSW,202,5.6,8.0,100,0.00,,,0.00,Rainwise IP-100,2013-09-08 15:10:00,
2013-09-08 08:15:00,56.3,56.0,29.65,WSW,247,5.6,8.0,100,0.00,,,0.00,Rainwise IP-100,2013-09-08 15:15:00,
2013-09-08 08:20:00,56.3,56.0,29.65,WSW,247,5.1,8.0,100,0.00,,,0.00,Rainwise IP-100,2013-09-08 15:20:00,
2013-09-08 08:25:00,56.4,56.0,29.65,WSW,247,3.7,9.0,100,0.00,,,0.00,Rainwise IP-100,2013-09-08 15:25:00,
2013-09-08 08:30:00,56.4,56.0,29.65,SSW,202,4.0,7.0,100,0.00,,,0.00,Rainwise IP-100,2013-09-08 15:30:00,
2013-09-08 08:35:00,56.5,56.0,29.65,WSW,247,4.0,7.0,100,0.00,,,0.00,Rainwise IP-100,2013-09-08 15:35:00,
2013-09-08 08:40:00,56.5,56.0,29.65,SSW,202,5.4,8.0,100,0.00,,,0.00,Rainwise IP-100,2013-09-08 15:40:00,
2013-09-08 08:45:00,56.4,56.0,29.65,WSW,247,4.0,7.0,100,0.00,,,0.00,Rainwise IP-100,2013-09-08 15:45:00,
2013-09-08 08:50:00,56.4,56.0,29.65,SW,225,6.5,7.0,100,0.00,,,0.00,Rainwise IP-100,2013-09-08 15:50:00,
2013-09-08 08:55:00,56.4,56.0,29.65,SSW,202,2.6,8.0,100,0.00,,,0.00,Rainwise IP-100,2013-09-08 15:55:00,
2013-09-08 09:00:00,56.6,56.0,29.65,SW,225,4.0,6.0,100,0.00,,,0.00,Rainwise IP-100,2013-09-08 16:00:00,
2013-09-08 09:05:00,56.8,56.0,29.65,SSW,202,3.5,6.0,100,0.00,,,0.00,Rainwise IP-100,2013-09-08 16:05:00,
2013-09-08 09:10:00,56.9,57.0,29.65,SW,225,1.9,5.0,100,0.00,,,0.00,Rainwise IP-100,2013-09-08 16:10:00,
2013-09-08 09:15:00,57.1,57.0,29.65,SW,225,4.0,6.0,100,0.00,,,0.00,Rainwise IP-100,2013-09-08 16:15:00,
2013-09-08 09:20:00,57.1,57.0,29.65,WSW,247,4.4,7.0,100,0.00,,,0.00,Rainwise IP-100,2013-09-08 16:20:00,
2013-09-08 09:25:00,57.1,57.0,29.65,SW,225,2.6,7.0,100,0.00,,,0.00,Rainwise IP-100,2013-09-08 16:25:00,
2013-09-08 09:30:00,57.2,57.0,29.65,SSW,202,4.4,7.0,100,0.00,,,0.00,Rainwise IP-100,2013-09-08 16:30:00,
2013-09-08 09:35:00,57.3,57.0,29.65,WSW,247,1.2,8.0,100,0.00,,,0.00,Rainwise IP-100,2013-09-08 16:35:00,
2013-09-08 09:40:00,57.7,57.0,29.65,SW,225,3.7,6.0,100,0.00,,,0.00,Rainwise IP-100,2013-09-08 16:40:00,
2013-09-08 09:45:00,57.9,58.0,29.65,WSW,247,6.1,7.0,100,0.00,,,0.00,Rainwise IP-100,2013-09-08 16:45:00,
2013-09-08 09:50:00,57.7,57.0,29.65,SW,225,6.1,9.0,100,0.00,,,0.00,Rainwise IP-100,2013-09-08 16:50:00,
2013-09-08 09:55:00,57.6,57.0,29.66,WSW,247,3.0,7.0,100,0.00,,,0.00,Rainwise IP-100,2013-09-08 16:55:00,
2013-09-08 10:00:00,57.6,57.0,29.65,WSW,247,3.3,7.0,100,0.00,,,0.00,Rainwise IP-100,2013-09-08 17:00:00,
2013-09-08 10:05:00,57.7,57.0,29.65,SSW,202,4.4,7.0,100,0.00,,,0.00,Rainwise IP-100,2013-09-08 17:05:00,
2013-09-08 10:10:00,58.1,58.0,29.65,SSW,202,5.1,7.0,100,0.00,,,0.00,Rainwise IP-100,2013-09-08 17:10:00,
2013-09-08 10:15:00,58.6,59.0,29.65,WSW,247,4.4,7.0,100,0.00,,,0.00,Rainwise IP-100,2013-09-08 17:15:00,
2013-09-08 10:20:00,58.9,59.0,29.65,WSW,247,4.2,7.0,100,0.00,,,0.00,Rainwise IP-100,2013-09-08 17:20:00,
2013-09-08 10:25:00,58.9,59.0,29.65,WSW,247,3.5,9.0,100,0.00,,,0.00,Rainwise IP-100,2013-09-08 17:25:00,
2013-09-08 10:30:00,59.1,59.0,29.64,WNW,292,5.6,8.0,100,0.00,,,0.00,Rainwise IP-100,2013-09-08 17:30:00,
2013-09-08 10:35:00,59.5,59.0,29.64,SSW,202,1.6,7.0,100,0.00,,,0.00,Rainwise IP-100,2013-09-08 17:35:00,
2013-09-08 10:40:00,59.9,60.0,29.65,WSW,247,4.0,7.0,100,0.00,,,0.00,Rainwise IP-100,2013-09-08 17:40:00,
2013-09-08 10:45:00,60.5,60.0,29.65,WSW,247,6.1,8.0,99,0.00,,,0.00,Rainwise IP-100,2013-09-08 17:45:00,
2013-09-08 10:50:00,61.0,60.0,29.65,West,270,2.3,9.0,98,0.00,,,0.00,Rainwise IP-100,2013-09-08 17:50:00,
2013-09-08 10:55:00,61.2,60.0,29.65,West,270,7.5,10.0,97,0.00,,,0.00,Rainwise IP-100,2013-09-08 17:55:00,
2013-09-08 11:00:00,61.3,60.0,29.64,West,270,6.1,10.0,96,0.00,,,0.00,Rainwise IP-100,2013-09-08 18:00:00,
2013-09-08 11:05:00,61.5,60.0,29.65,SSW,202,6.3,13.0,95,0.00,,,0.00,Rainwise IP-100,2013-09-08 18:05:00,
2013-09-08 11:10:00,61.9,60.0,29.65,South,180,2.3,10.0,94,0.00,,,0.00,Rainwise IP-100,2013-09-08 18:10:00,
2013-09-08 11:15:00,62.0,60.0,29.64,SSW,202,8.6,11.0,93,0.00,,,0.00,Rainwise IP-100,2013-09-08 18:15:00,
2013-09-08 11:20:00,62.0,60.0,29.64,SSW,202,6.5,11.0,92,0.00,,,0.00,Rainwise IP-100,2013-09-08 18:20:00,
2013-09-08 11:25:00,62.3,59.0,29.64,WSW,247,4.0,9.0,91,0.00,,,0.00,Rainwise IP-100,2013-09-08 18:25:00,
2013-09-08 11:30:00,62.7,59.0,29.64,SSW,202,5.8,10.0,90,0.00,,,0.00,Rainwise IP-100,2013-09-08 18:30:00,
2013-09-08 11:35:00,62.7,59.0,29.64,SW,225,5.6,10.0,90,0.00,,,0.00,Rainwise IP-100,2013-09-08 18:35:00,
2013-09-08 11:40:00,62.6,59.0,29.64,SSW,202,7.2,13.0,89,0.00,,,0.00,Rainwise IP-100,2013-09-08 18:40:00,
2013-09-08 11:45:00,62.7,59.0,29.64,SSW,202,5.6,13.0,89,0.00,,,0.00,Rainwise IP-100,2013-09-08 18:45:00,
2013-09-08 11:50:00,62.7,59.0,29.64,SSW,202,6.3,11.0,89,0.00,,,0.00,Rainwise IP-100,2013-09-08 18:50:00,
2013-09-08 11:55:00,62.6,59.0,29.64,WSW,247,9.6,14.0,89,0.00,,,0.00,Rainwise IP-100,2013-09-08 18:55:00,
2013-09-08 12:00:00,62.0,59.0,29.65,SW,225,8.4,13.0,90,0.00,,,0.00,Rainwise IP-100,2013-09-08 19:00:00,
2013-09-08 12:05:00,61.7,59.0,29.64,West,270,3.7,12.0,90,0.00,,,0.00,Rainwise IP-100,2013-09-08 19:05:00,
2013-09-08 12:10:00,62.0,59.0,29.65,SW,225,7.9,11.0,90,0.00,,,0.00,Rainwise IP-100,2013-09-08 19:10:00,
2013-09-08 12:15:00,62.5,59.0,29.64,WSW,247,6.8,13.0,90,0.00,,,0.00,Rainwise IP-100,2013-09-08 19:15:00,
2013-09-08 12:20:00,62.2,59.0,29.64,SW,225,4.9,14.0,89,0.00,,,0.00,Rainwise IP-100,2013-09-08 19:20:00,
2013-09-08 12:25:00,61.8,58.0,29.64,WSW,247,9.6,13.0,89,0.00,,,0.00,Rainwise IP-100,2013-09-08 19:25:00,
2013-09-08 12:30:00,62.4,59.0,29.64,SW,225,4.7,13.0,89,0.00,,,0.00,Rainwise IP-100,2013-09-08 19:30:00,
2013-09-08 12:35:00,63.2,59.0,29.64,SW,225,4.7,11.0,88,0.00,,,0.00,Rainwise IP-100,2013-09-08 19:35:00,
2013-09-08 12:40:00,63.2,59.0,29.63,SW,225,13.3,14.0,87,0.00,,,0.00,Rainwise IP-100,2013-09-08 19:40:00,
2013-09-08 12:45:00,62.6,59.0,29.64,WSW,247,3.5,15.0,87,0.00,,,0.00,Rainwise IP-100,2013-09-08 19:45:00,
2013-09-08 12:50:00,62.2,58.0,29.63,SW,225,5.1,14.0,88,0.00,,,0.00,Rainwise IP-100,2013-09-08 19:50:00,
2013-09-08 12:55:00,62.4,59.0,29.63,WSW,247,3.3,12.0,88,0.00,,,0.00,Rainwise IP-100,2013-09-08 19:55:00,
2013-09-08 13:00:00,62.3,58.0,29.63,WSW,247,5.6,14.0,88,0.00,,,0.00,Rainwise IP-100,2013-09-08 20:00:00,
2013-09-08 13:05:00,62.1,59.0,29.63,West,270,5.1,13.0,89,0.00,,,0.00,Rainwise IP-100,2013-09-08 20:05:00,
2013-09-08 13:10:00,62.3,59.0,29.62,WSW,247,8.9,12.0,89,0.00,,,0.00,Rainwise IP-100,2013-09-08 20:10:00,
2013-09-08 13:15:00,62.8,59.0,29.62,SW,225,6.3,13.0,89,0.00,,,0.00,Rainwise IP-100,2013-09-08 20:15:00,
2013-09-08 13:20:00,63.2,59.0,29.62,SW,225,8.6,13.0,88,0.00,,,0.00,Rainwise IP-100,2013-09-08 20:20:00,
2013-09-08 13:25:00,63.6,59.0,29.62,SW,225,8.4,14.0,87,0.00,,,0.00,Rainwise IP-100,2013-09-08 20:25:00,
2013-09-08 13:30:00,63.4,59.0,29.61,SSW,202,7.5,16.0,87,0.00,,,0.00,Rainwise IP-100,2013-09-08 20:30:00,
2013-09-08 13:35:00,63.2,59.0,29.62,WSW,247,9.8,13.0,87,0.00,,,0.00,Rainwise IP-100,2013-09-08 20:35:00,
2013-09-08 13:40:00,63.1,59.0,29.62,West,270,3.3,16.0,88,0.00,,,0.00,Rainwise IP-100,2013-09-08 20:40:00,
2013-09-08 13:45:00,63.1,59.0,29.61,West,270,8.9,14.0,87,0.00,,,0.00,Rainwise IP-100,2013-09-08 20:45:00,
2013-09-08 13:50:00,63.0,59.0,29.62,SW,225,13.3,15.0,87,0.00,,,0.00,Rainwise IP-100,2013-09-08 20:50:00,
2013-09-08 13:55:00,62.6,59.0,29.62,SSW,202,12.1,16.0,88,0.00,,,0.00,Rainwise IP-100,2013-09-08 20:55:00,
2013-09-08 14:00:00,62.8,59.0,29.61,WSW,247,9.1,15.0,88,0.00,,,0.00,Rainwise IP-100,2013-09-08 21:00:00,
2013-09-08 14:05:00,62.8,59.0,29.61,SW,225,14.2,14.2,88,0.00,,,0.00,Rainwise IP-100,2013-09-08 21:05:00,
2013-09-08 14:10:00,62.6,59.0,29.61,SW,225,10.0,15.0,88,0.00,,,0.00,Rainwise IP-100,2013-09-08 21:10:00,
2013-09-08 14:15:00,62.4,59.0,29.61,WSW,247,9.3,14.0,89,0.00,,,0.00,Rainwise IP-100,2013-09-08 21:15:00,
2013-09-08 14:20:00,62.4,59.0,29.61,WSW,247,6.5,16.0,89,0.00,,,0.00,Rainwise IP-100,2013-09-08 21:20:00,
2013-09-08 14:25:00,62.2,59.0,29.62,SW,225,9.8,15.0,89,0.00,,,0.00,Rainwise IP-100,2013-09-08 21:25:00,
2013-09-08 14:30:00,61.5,59.0,29.61,West,270,7.2,14.0,90,0.00,,,0.00,Rainwise IP-100,2013-09-08 21:30:00,
2013-09-08 14:35:00,61.4,59.0,29.61,SW,225,11.2,15.0,91,0.00,,,0.00,Rainwise IP-100,2013-09-08 21:35:00,
2013-09-08 14:40:00,61.6,59.0,29.61,WSW,247,7.5,16.0,91,0.00,,,0.00,Rainwise IP-100,2013-09-08 21:40:00,
2013-09-08 14:45:00,61.5,59.0,29.61,WSW,247,6.8,15.0,91,0.00,,,0.00,Rainwise IP-100,2013-09-08 21:45:00,
2013-09-08 14:50:00,61.4,59.0,29.60,SW,225,7.7,15.0,90,0.00,,,0.00,Rainwise IP-100,2013-09-08 21:50:00,
2013-09-08 14:52:00,61.4,59.0,29.60,SSW,202,11.0,14.0,90,0.00,,,0.00,Rainwise IP-100,2013-09-08 21:52:00,
2013-09-08 14:56:00,61.3,58.0,29.60,SW,225,10.7,14.0,90,0.00,,,0.00,Rainwise IP-100,2013-09-08 21:56:00,
2013-09-08 15:01:00,61.6,59.0,29.60,WSW,247,12.6,16.0,90,0.00,,,0.00,Rainwise IP-100,2013-09-08 22:01:00,
2013-09-08 15:06:00,61.7,59.0,29.60,WSW,247,7.5,14.0,90,0.00,,,0.00,Rainwise IP-100,2013-09-08 22:06:00,
2013-09-08 15:11:00,61.4,59.0,29.60,SW,225,9.3,15.0,91,0.00,,,0.00,Rainwise IP-100,2013-09-08 22:11:00,
2013-09-08 15:16:00,61.1,58.0,29.60,SSW,202,7.9,14.0,91,0.00,,,0.00,Rainwise IP-100,2013-09-08 22:16:00,
2013-09-08 15:21:00,61.1,58.0,29.59,WSW,247,11.7,14.0,91,0.00,,,0.00,Rainwise IP-100,2013-09-08 22:21:00,
2013-09-08 15:26:00,61.5,59.0,29.59,WSW,247,9.6,14.0,91,0.00,,,0.00,Rainwise IP-100,2013-09-08 22:26:00,
2013-09-08 15:31:00,61.5,59.0,29.59,SW,225,11.0,14.0,91,0.00,,,0.00,Rainwise IP-100,2013-09-08 22:31:00,
2013-09-08 15:36:00,61.7,59.0,29.59,WSW,247,8.9,13.0,90,0.00,,,0.00,Rainwise IP-100,2013-09-08 22:36:00,
2013-09-08 15:41:00,62.2,59.0,29.59,SW,225,8.6,12.0,89,0.00,,,0.00,Rainwise IP-100,2013-09-08 22:41:00,
2013-09-08 15:46:00,62.2,59.0,29.58,SSW,202,5.6,13.0,89,0.00,,,0.00,Rainwise IP-100,2013-09-08 22:46:00,
2013-09-08 15:51:00,62.3,58.0,29.58,SW,225,10.0,13.0,88,0.00,,,0.00,Rainwise IP-100,2013-09-08 22:51:00,
2013-09-08 15:56:00,62.4,59.0,29.57,SW,225,10.5,13.0,88,0.00,,,0.00,Rainwise IP-100,2013-09-08 22:56:00,
2013-09-08 16:01:00,62.3,58.0,29.57,SSW,202,8.6,14.0,88,0.00,,,0.00,Rainwise IP-100,2013-09-08 23:01:00,
2013-09-08 16:06:00,62.3,58.0,29.57,SW,225,10.0,13.0,88,0.00,,,0.00,Rainwise IP-100,2013-09-08 23:06:00,
2013-09-08 16:11:00,62.0,58.0,29.57,SW,225,9.6,14.0,87,0.00,,,0.00,Rainwise IP-100,2013-09-08 23:11:00,
2013-09-08 16:16:00,61.4,57.0,29.57,SW,225,9.8,15.0,88,0.00,,,0.00,Rainwise IP-100,2013-09-08 23:16:00,
2013-09-08 16:21:00,60.9,57.0,29.57,SW,225,11.0,13.0,89,0.00,,,0.00,Rainwise IP-100,2013-09-08 23:21:00,
2013-09-08 16:26:00,60.6,57.0,29.57,SSW,202,10.5,17.0,89,0.00,,,0.00,Rainwise IP-100,2013-09-08 23:26:00,
2013-09-08 16:31:00,60.6,57.0,29.57,SW,225,12.8,14.0,89,0.00,,,0.00,Rainwise IP-100,2013-09-08 23:31:00,
2013-09-08 16:36:00,60.3,57.0,29.57,SW,225,6.1,16.0,90,0.00,,,0.00,Rainwise IP-100,2013-09-08 23:36:00,
2013-09-08 16:41:00,60.0,57.0,29.58,SSW,202,6.1,16.0,91,0.00,,,0.00,Rainwise IP-100,2013-09-08 23:41:00,
2013-09-08 16:46:00,59.4,56.0,29.57,WSW,247,4.7,17.0,91,0.00,,,0.00,Rainwise IP-100,2013-09-08 23:46:00,
2013-09-08 16:51:00,58.9,56.0,29.57,WSW,247,6.1,15.0,92,0.00,,,0.00,Rainwise IP-100,2013-09-08 23:51:00,
2013-09-08 16:53:00,59.1,57.0,29.57,SW,225,10.7,15.0,93,0.00,,,0.00,Rainwise IP-100,2013-09-08 23:53:00,
2013-09-08 16:58:00,59.2,57.0,29.57,SW,225,6.5,13.0,93,0.00,,,0.00,Rainwise IP-100,2013-09-08 23:58:00,
2013-09-08 17:03:00,59.6,57.0,29.57,WSW,247,8.6,12.0,93,0.00,,,0.00,Rainwise IP-100,2013-09-09 00:03:00,
2013-09-08 17:08:00,59.7,57.0,29.57,SW,225,7.9,15.0,92,0.00,,,0.00,Rainwise IP-100,2013-09-09 00:08:00,
2013-09-08 17:13:00,59.2,56.0,29.58,WSW,247,5.6,16.0,92,0.00,,,0.00,Rainwise IP-100,2013-09-09 00:13:00,
2013-09-08 17:18:00,58.6,57.0,29.57,SW,225,8.4,14.0,93,0.00,,,0.00,Rainwise IP-100,2013-09-09 00:18:00,
2013-09-08 17:23:00,58.2,56.0,29.58,WSW,247,11.2,16.0,93,0.00,,,0.00,Rainwise IP-100,2013-09-09 00:23:00,
2013-09-08 17:28:00,57.8,56.0,29.57,SW,225,13.3,15.0,95,0.00,,,0.00,Rainwise IP-100,2013-09-09 00:28:00,
2013-09-08 17:33:00,57.4,56.0,29.57,SSW,202,7.0,16.0,95,0.00,,,0.00,Rainwise IP-100,2013-09-09 00:33:00,
2013-09-08 17:38:00,57.3,56.0,29.57,SW,225,7.5,13.0,96,0.00,,,0.00,Rainwise IP-100,2013-09-09 00:38:00,
2013-09-08 17:43:00,57.3,56.0,29.57,SW,225,13.8,14.0,97,0.00,,,0.00,Rainwise IP-100,2013-09-09 00:43:00,
2013-09-08 17:48:00,57.2,56.0,29.57,SW,225,8.2,14.0,97,0.00,,,0.00,Rainwise IP-100,2013-09-09 00:48:00,
2013-09-08 17:53:00,57.1,56.0,29.57,SW,225,12.6,14.0,97,0.00,,,0.00,Rainwise IP-100,2013-09-09 00:53:00,
2013-09-08 17:58:00,57.1,56.0,29.57,SSW,202,4.7,14.0,97,0.00,,,0.00,Rainwise IP-100,2013-09-09 00:58:00,
2013-09-08 18:03:00,56.7,56.0,29.57,WSW,247,12.8,15.0,97,0.00,,,0.00,Rainwise IP-100,2013-09-09 01:03:00,
2013-09-08 18:08:00,56.3,55.0,29.57,WSW,247,10.3,15.0,97,0.00,,,0.00,Rainwise IP-100,2013-09-09 01:08:00,
2013-09-08 18:13:00,55.9,55.0,29.56,SW,225,10.7,16.0,98,0.00,,,0.00,Rainwise IP-100,2013-09-09 01:13:00,
2013-09-08 18:18:00,55.7,55.0,29.57,SW,225,5.4,14.0,98,0.00,,,0.00,Rainwise IP-100,2013-09-09 01:18:00,
2013-09-08 18:23:00,56.0,55.0,29.56,SW,225,7.0,12.0,98,0.00,,,0.00,Rainwise IP-100,2013-09-09 01:23:00,
2013-09-08 18:28:00,55.9,55.0,29.56,SW,225,10.5,14.0,98,0.00,,,0.00,Rainwise IP-100,2013-09-09 01:28:00,
2013-09-08 18:33:00,55.8,55.0,29.56,SSW,202,6.1,13.0,98,0.00,,,0.00,Rainwise IP-100,2013-09-09 01:33:00,
2013-09-08 18:38:00,55.7,55.0,29.55,SW,225,9.6,16.0,98,0.00,,,0.00,Rainwise IP-100,2013-09-09 01:38:00,
2013-09-08 18:43:00,55.5,56.0,29.55,SW,225,9.8,16.0,99,0.00,,,0.00,Rainwise IP-100,2013-09-09 01:43:00,
2013-09-08 18:48:00,55.4,55.0,29.55,SW,225,11.4,15.0,99,0.00,,,0.00,Rainwise IP-100,2013-09-09 01:48:00,
2013-09-08 18:53:00,55.3,55.0,29.55,WSW,247,6.3,15.0,99,0.00,,,0.00,Rainwise IP-100,2013-09-09 01:53:00,
2013-09-08 18:58:00,55.3,55.0,29.56,WSW,247,8.9,15.0,99,0.00,,,0.00,Rainwise IP-100,2013-09-09 01:58:00,
2013-09-08 19:03:00,55.4,55.0,29.55,SSW,202,9.1,14.0,99,0.00,,,0.00,Rainwise IP-100,2013-09-09 02:03:00,
2013-09-08 19:08:00,55.4,55.0,29.55,SW,225,8.6,14.0,99,0.00,,,0.00,Rainwise IP-100,2013-09-09 02:08:00,
2013-09-08 19:13:00,55.3,55.0,29.56,SW,225,8.4,13.0,99,0.00,,,0.00,Rainwise IP-100,2013-09-09 02:13:00,
2013-09-08 19:18:00,55.5,56.0,29.56,SSW,202,7.5,13.0,99,0.00,,,0.00,Rainwise IP-100,2013-09-09 02:18:00,
2013-09-08 19:23:00,55.7,56.0,29.55,SW,225,7.0,11.0,100,0.00,,,0.00,Rainwise IP-100,2013-09-09 02:23:00,
2013-09-08 19:28:00,55.5,56.0,29.55,SW,225,9.8,12.0,100,0.00,,,0.00,Rainwise IP-100,2013-09-09 02:28:00,
2013-09-08 19:33:00,55.2,55.0,29.55,SW,225,11.4,13.0,100,0.00,,,0.00,Rainwise IP-100,2013-09-09 02:33:00,
2013-09-08 19:38:00,55.1,55.0,29.56,WSW,247,4.9,13.0,100,0.00,,,0.00,Rainwise IP-100,2013-09-09 02:38:00,
2013-09-08 19:43:00,55.0,55.0,29.55,SW,225,7.7,13.0,100,0.00,,,0.00,Rainwise IP-100,2013-09-09 02:43:00,
2013-09-08 19:48:00,54.9,55.0,29.55,SSW,202,4.7,14.0,100,0.00,,,0.00,Rainwise IP-100,2013-09-09 02:48:00,
2013-09-08 19:53:00,54.7,54.0,29.55,SSW,202,8.6,15.0,100,0.00,,,0.00,Rainwise IP-100,2013-09-09 02:53:00,
2013-09-08 19:58:00,54.6,54.0,29.56,SW,225,4.4,13.0,100,0.00,,,0.00,Rainwise IP-100,2013-09-09 02:58:00,
2013-09-08 20:03:00,54.7,54.0,29.56,SSW,202,8.2,13.0,100,0.00,,,0.00,Rainwise IP-100,2013-09-09 03:03:00,
2013-09-08 20:08:00,54.8,54.0,29.56,WSW,247,10.5,14.0,100,0.00,,,0.00,Rainwise IP-100,2013-09-09 03:08:00,
2013-09-08 20:13:00,54.9,55.0,29.56,SW,225,10.7,14.0,100,0.00,,,0.00,Rainwise IP-100,2013-09-09 03:13:00,
2013-09-08 20:18:00,54.7,54.0,29.56,West,270,8.2,14.0,100,0.00,,,0.00,Rainwise IP-100,2013-09-09 03:18:00,
2013-09-08 20:23:00,54.5,54.0,29.55,SW,225,3.0,13.0,100,0.00,,,0.00,Rainwise IP-100,2013-09-09 03:23:00,
2013-09-08 20:28:00,54.5,54.0,29.56,WSW,247,6.3,12.0,100,0.00,,,0.00,Rainwise IP-100,2013-09-09 03:28:00,
2013-09-08 20:33:00,54.5,54.0,29.56,SW,225,9.1,15.0,100,0.00,,,0.00,Rainwise IP-100,2013-09-09 03:33:00,
2013-09-08 20:38:00,54.5,54.0,29.56,SW,225,6.3,14.0,100,0.00,,,0.00,Rainwise IP-100,2013-09-09 03:38:00,
2013-09-08 20:43:00,54.7,54.0,29.56,SSW,202,6.3,13.0,100,0.00,,,0.00,Rainwise IP-100,2013-09-09 03:43:00,
2013-09-08 20:48:00,54.9,55.0,29.56,SW,225,8.9,11.0,100,0.00,,,0.00,Rainwise IP-100,2013-09-09 03:48:00,
2013-09-08 20:53:00,54.7,54.0,29.56,SW,225,7.0,11.0,100,0.00,,,0.00,Rainwise IP-100,2013-09-09 03:53:00,
2013-09-08 20:58:00,54.5,54.0,29.56,SW,225,7.9,14.0,100,0.00,,,0.00,Rainwise IP-100,2013-09-09 03:58:00,
2013-09-08 21:01:00,54.5,54.0,29.56,SW,225,10.5,14.0,100,0.00,,,0.00,Rainwise IP-100,2013-09-09 04:01:00,
2013-09-08 21:06:00,54.5,54.0,29.56,WSW,247,8.6,12.0,100,0.00,,,0.00,Rainwise IP-100,2013-09-09 04:06:00,
2013-09-08 21:11:00,54.6,54.0,29.56,SW,225,8.9,12.0,100,0.00,,,0.00,Rainwise IP-100,2013-09-09 04:11:00,
2013-09-08 21:16:00,54.6,54.0,29.56,SW,225,9.3,13.0,100,0.00,,,0.00,Rainwise IP-100,2013-09-09 04:16:00,
2013-09-08 21:21:00,54.6,54.0,29.56,SW,225,10.3,12.0,100,0.00,,,0.00,Rainwise IP-100,2013-09-09 04:21:00,
2013-09-08 21:26:00,54.5,54.0,29.57,SW,225,7.7,12.0,100,0.00,,,0.00,Rainwise IP-100,2013-09-09 04:26:00,
2013-09-08 21:31:00,54.5,54.0,29.57,SSW,202,8.2,12.0,100,0.00,,,0.00,Rainwise IP-100,2013-09-09 04:31:00,
2013-09-08 21:36:00,54.5,54.0,29.57,SW,225,8.9,14.0,100,0.00,,,0.00,Rainwise IP-100,2013-09-09 04:36:00,
2013-09-08 21:41:00,54.4,54.0,29.56,South,180,4.4,13.0,100,0.00,,,0.00,Rainwise IP-100,2013-09-09 04:41:00,
2013-09-08 21:46:00,54.4,54.0,29.56,SW,225,9.8,11.0,100,0.00,,,0.00,Rainwise IP-100,2013-09-09 04:46:00,
2013-09-08 21:51:00,54.5,54.0,29.57,SW,225,9.8,13.0,100,0.00,,,0.00,Rainwise IP-100,2013-09-09 04:51:00,
2013-09-08 21:56:00,54.2,54.0,29.57,SSW,202,7.2,12.0,100,0.00,,,0.00,Rainwise IP-100,2013-09-09 04:56:00,
2013-09-08 22:01:00,54.1,54.0,29.57,SSW,202,6.8,12.0,100,0.00,,,0.00,Rainwise IP-100,2013-09-09 05:01:00,
2013-09-08 22:06:00,54.2,54.0,29.58,SW,225,8.6,11.0,100,0.00,,,0.00,Rainwise IP-100,2013-09-09 05:06:00,
2013-09-08 22:11:00,54.3,54.0,29.57,WSW,247,8.9,11.0,100,0.00,,,0.00,Rainwise IP-100,2013-09-09 05:11:00,
2013-09-08 22:16:00,54.3,54.0,29.57,SSW,202,6.1,12.0,100,0.00,,,0.00,Rainwise IP-100,2013-09-09 05:16:00,
2013-09-08 22:21:00,54.2,54.0,29.57,SW,225,4.9,13.0,100,0.00,,,0.00,Rainwise IP-100,2013-09-09 05:21:00,
2013-09-08 22:26:00,54.3,54.0,29.57,SW,225,9.8,13.0,100,0.00,,,0.00,Rainwise IP-100,2013-09-09 05:26:00,
2013-09-08 22:31:00,54.4,54.0,29.57,SW,225,5.8,11.0,100,0.00,,,0.00,Rainwise IP-100,2013-09-09 05:31:00,
2013-09-08 22:36:00,54.3,54.0,29.57,WSW,247,8.6,12.0,100,0.00,,,0.00,Rainwise IP-100,2013-09-09 05:36:00,
2013-09-08 22:41:00,54.3,54.0,29.57,WSW,247,6.3,10.0,100,0.00,,,0.00,Rainwise IP-100,2013-09-09 05:41:00,
2013-09-08 22:46:00,54.2,54.0,29.57,SW,225,5.8,12.0,100,0.00,,,0.00,Rainwise IP-100,2013-09-09 05:46:00,
2013-09-08 22:51:00,53.9,54.0,29.57,SW,225,9.3,13.0,100,0.00,,,0.00,Rainwise IP-100,2013-09-09 05:51:00,
2013-09-08 22:56:00,53.9,54.0,29.57,SW,225,5.4,10.0,100,0.00,,,0.00,Rainwise IP-100,2013-09-09 05:56:00,
2013-09-08 23:01:00,54.1,54.0,29.57,SW,225,6.5,10.0,100,0.00,,,0.00,Rainwise IP-100,2013-09-09 06:01:00,
2013-09-08 23:06:00,54.0,54.0,29.57,SW,225,9.1,10.0,100,0.00,,,0.00,Rainwise IP-100,2013-09-09 06:06:00,
2013-09-08 23:11:00,53.9,54.0,29.57,WSW,247,2.6,13.0,100,0.00,,,0.00,Rainwise IP-100,2013-09-09 06:11:00,
2013-09-08 23:16:00,54.0,54.0,29.57,SW,225,4.7,10.0,100,0.00,,,0.00,Rainwise IP-100,2013-09-09 06:16:00,
2013-09-08 23:21:00,54.1,54.0,29.58,SW,225,5.4,10.0,100,0.00,,,0.00,Rainwise IP-100,2013-09-09 06:21:00,
2013-09-08 23:26:00,54.0,54.0,29.57,SW,225,6.1,9.0,100,0.00,,,0.00,Rainwise IP-100,2013-09-09 06:26:00,
2013-09-08 23:31:00,53.9,54.0,29.57,WSW,247,7.0,9.0,100,0.00,,,0.00,Rainwise IP-100,2013-09-09 06:31:00,
2013-09-08 23:36:00,53.8,53.0,29.57,WSW,247,4.4,11.0,100,0.00,,,0.00,Rainwise IP-100,2013-09-09 06:36:00,
2013-09-08 23:41:00,53.8,53.0,29.57,SSW,202,9.6,11.0,100,0.00,,,0.00,Rainwise IP-100,2013-09-09 06:41:00,
2013-09-08 23:46:00,54.0,54.0,29.57,SW,225,6.8,11.0,100,0.00,,,0.00,Rainwise IP-100,2013-09-09 06:46:00,
2013-09-08 23:51:00,54.1,54.0,29.58,SW,225,6.5,11.0,100,0.00,,,0.00,Rainwise IP-100,2013-09-09 06:51:00,
2013-09-08 23:56:00,54.1,54.0,29.57,SW,225,4.0,11.0,100,0.00,,,0.00,Rainwise IP-100,2013-09-09 06:56:00,